THORAD AGENA D DEB, 19391

Orbit data source: Space-Track

THORAD AGENA D DEB, 19391 is space debris in SSO originally from a launch on Wed, 08 Apr 1970 UTC launched from the Air Force Western Test Range (AFWTR). Debris objects in space refer to the collection of defunct objects orbiting the Earth. Examples of debris include non-operational satellites, rocket bodies, and fragments generated from explosions, collisions, or faulty payload assembly.

Loading next visibility...
Identifier
19391, 1970-025PZ
Orbit
SSO
Country
Flag of USUS
Related business
Manufacturer
Unknown
Mission
Spacecraft
Bus & Motor
Unknown
Mass
Unknown
Launch date (UTC)
1970-04-08 (56 years ago)
Launch vehicle
Unknown
Launch site
Air Force Western Test Range (AFWTR)
Object type
Payload
Rocket body
Debris
Shape & HBR
Unknown shape, 1.1 m
Radar Cross Section
Small (<0.1 m²)

Expand to show TLE details & history
Last TLE update: 14 hours ago

TLE from 14 hours ago
0 THORAD AGENA D DEB
1 19391U 70025PZ  25307.59943170  .00001642  00000-0  10487-2 0  9997
2 19391  98.7486 166.9170 0142501 206.9450 181.7108 13.99992618887518
Epoch: 2025-11-03T14:23Z
TLE epoch observation values (Epoch: 2025-11-03T14:23:10.898Z)
Latitude
28.28783°
Longitude
-96.70292°
Altitude
1,000.88 km
Speed
7.301 km/s
True Right ascension
10h 48m 45s
True Declination
28° 08' 57"
Sunlit
Object was in daylight at epoch
Visualization orbit readout
Latitude
Unknown
Longitude
Unknown
Altitude
Unknown
Speed
Unknown
Apparent Right ascension
Unknown
Apparent Declination
Unknown
Sunlit
N/A
Visualization observer readout
Local Sidereal Time
23:59:14
Azimuth
Unknown
Elevation
Unknown
Doppler factor
Unknown
Orbital elements
Apogee altitude
994.593 km
Perigee altitude
787.421 km
Semi-major axis
7,269.144 km
Eccentricity
0.01425
Inclination
98.7486°
RAAN
166.917°
Arg. of periapsis
206.945°
True anomaly
181.6629°
Mean anomaly
181.7108°
Eccentric anomaly
181.68677°
Mean motion
3.50202 °/min
Orbital period
102.8 mins
BSTAR
0.0010487

Documentation

Showing up to 5 results
|